Home > Weather > Belushya Guba > Past weeks

Flag for Russia Weather for the Past 2 Weeks in Belushya Guba, Russia

Now
28 °F

Passing clouds.


Feels Like: 25 °F
Forecast: 19 / 29 °F
Wind: 3 mph from Southeast

Location: Murmansk Airport

Current Time: Feb 14, 2016 at 3:25:52 AM

Latest Report: Feb 14, 2016 at 2:00 AM


Visibility: N/A

Pressure: 29.77 "Hg

Humidity: 86%

Dew point: 25 °F

Location of Belushya GubaLocation

Historic Weather in Belushya Guba — Graph

°F

Belushya Guba Temperature Yesterday

Maximum temperature yesterday: 30 °F (at 12:00 AM)
Minimum temperature yesterday: 25 °F (at 10:30 PM)
Average temperature yesterday: 28 °F

High & Low Weather Summary for the Past Weeks

 TemperatureHumidityPressure
High37 °F (Feb 8, 6:00 PM)93% (Jan 30, 9:00 PM)29.77 "Hg (Jan 30, 9:00 PM)
Low-9 °F (Feb 6, 11:00 PM)65% (Feb 9, 4:00 AM)28.65 "Hg (Jan 31, 7:00 AM)
Average23 °F87%29.20 "Hg
* Reported Jan 30 2:00 AM — Feb 14 2:00 AM, Belushya Guba, Weather by CustomWeather, © 2016

Note: Actual official high and low records may vary slightly from our data, if they occured in-between our weather recording intervals... More about our weather records

Advertising

Belushya Guba Weather History for the Previous 24 Hours

 ConditionsComfort  
Time TempWeatherWind HumidityBarometerVisibility
2:00 AM
Sun, Feb 14
28 °FPassing clouds.3 mph86%29.77 "HgN/A
1:30 AM28 °FPassing clouds.3 mph86%29.77 "HgN/A
1:00 AM27 °FPassing clouds.3 mph93%29.77 "HgN/A
12:30 AM27 °FSnow flurries. Passing clouds.3 mph93%29.77 "Hg3 mi
12:00 AM25 °FClear.3 mph93%29.77 "Hg10 mi
11:30 PM
Sat, Feb 13
25 °FClear.No wind86%29.77 "Hg10 mi
11:00 PM25 °FPassing clouds.1 mph93%29.77 "HgN/A
10:30 PM25 °FPassing clouds.1 mph93%29.77 "HgN/A
10:00 PM28 °FSnow flurries. Passing clouds.3 mph86%29.77 "HgN/A
9:30 PM28 °FSnow flurries. Passing clouds.3 mph86%29.77 "HgN/A
9:00 PM28 °FSnow flurries. Passing clouds.1 mph86%29.77 "HgN/A
8:30 PM28 °FSnow flurries. Passing clouds.1 mph86%29.77 "HgN/A
8:00 PM28 °FSnow flurries. Passing clouds.1 mph86%29.77 "Hg4 mi
7:30 PM28 °FSnow flurries. Passing clouds.1 mph86%29.77 "Hg5 mi
7:00 PM27 °FPassing clouds.1 mph93%29.77 "HgN/A
6:30 PM27 °FPassing clouds.1 mph86%29.77 "HgN/A
6:00 PM27 °FPassing clouds.1 mph93%29.74 "HgN/A
5:30 PM27 °FPartly sunny.1 mph93%29.74 "HgN/A
5:00 PM27 °FPartly sunny.1 mph93%29.74 "HgN/A
4:30 PM28 °FSnow flurries. Partly sunny.1 mph86%29.74 "Hg4 mi
4:00 PM28 °FSnow flurries. Partly sunny.1 mph86%29.74 "Hg2 mi
3:30 PM28 °FScattered clouds.1 mph86%29.71 "HgN/A
3:00 PM28 °FScattered clouds.1 mph86%29.71 "HgN/A
2:00 PM28 °FScattered clouds.1 mph86%29.71 "HgN/A
1:30 PM28 °FScattered clouds.1 mph86%29.71 "HgN/A
1:00 PM28 °FScattered clouds.1 mph93%29.71 "HgN/A
12:30 PM28 °FScattered clouds.1 mph93%29.68 "HgN/A
12:00 PM28 °FScattered clouds.1 mph86%29.68 "HgN/A
11:30 AM27 °FScattered clouds.1 mph93%29.68 "HgN/A
11:00 AM27 °FPartly sunny.1 mph93%29.68 "HgN/A
10:30 AM27 °FSnow flurries. Partly sunny.1 mph93%29.68 "Hg6 mi
10:00 AM27 °FSnow flurries. Passing clouds.1 mph93%29.68 "Hg5 mi
9:30 AM27 °FSnow flurries. Passing clouds.1 mph93%29.65 "Hg4 mi
9:00 AM27 °FSnow flurries. Passing clouds.1 mph93%29.65 "Hg3 mi
8:30 AM28 °FSnow flurries. Passing clouds.No wind86%29.65 "Hg2 mi
8:00 AM28 °FSnow flurries. Passing clouds.No wind93%29.65 "Hg2 mi
7:00 AM28 °FSnow flurries. Passing clouds.No wind93%29.65 "Hg2 mi
6:30 AM27 °FSnow flurries. Passing clouds.No wind93%29.65 "Hg2 mi
6:00 AM28 °FSnow flurries. Passing clouds.No wind93%29.68 "Hg2 mi
5:00 AM28 °FSnow flurries. Passing clouds.No wind93%29.68 "Hg4 mi
4:30 AM28 °FSnow flurries. Passing clouds.1 mph93%29.68 "Hg2 mi
4:00 AM28 °FSnow flurries. Passing clouds.1 mph93%29.68 "Hg2 mi
3:00 AM28 °FSnow flurries. Passing clouds.3 mph93%29.65 "Hg6 mi
Weather by CustomWeather, © 2016

See weather overviewHow to use our weather pages